Location: Carrières
(48.9495°N, 2.0407°E)
Time: 18:22:28
(UTC+00:00)

SR - Pass Details

Date: 17 April 2024
Orbit: 579 x 860 km, 66.7° (Epoch: 22 May)

Event Time Altitude Azimuth Distance (km) Brightness Sun altitude
Exits shadow 00:48:36 12° 104° (ESE) 2,253 ? -29.1°
Maximum altitude 00:48:36 12° 104° (ESE) 2,253 ? -29.1°
Drops below altitude 10° 00:50:19 10° 85° (E) 2,334 ? -29.1°
Sets 00:54:23 0° 54° (NE) 3,193 ? -28.9°
